• In Italy
  • List of Countries
  • For 7 days
  • Water Temperature
  • Satellite Maps
  • Weather Map
  • Weather Widgets
  • user-avatar
    Login

    Hourly Weather Imphal

    Today, 23 September, Saturday

    Time Temperature Precipitation Wind Pressure Humidity
    00:00 +21°C° 0 mm 0 mps 690 mmHg 94%
    01:00 +21°C° 0.1 mm 0 mps 690 mmHg 94%
    02:00 +21°C° 0.1 mm 0 mps 690 mmHg 94%
    03:00 +21°C° 0.1 mm 0 mps 690 mmHg 94%
    04:00 +21°C° 0.1 mm 0 mps 690 mmHg 94%
    05:00 +21°C° 0.1 mm 0 mps 690 mmHg 94%
    06:00 +21°C° 0 mm 0 mps 691 mmHg 93%
    07:00 +24°C° 0.1 mm 0 mps 691 mmHg 85%
    08:00 +26°C° 0.1 mm 0 mps 692 mmHg 77%
    09:00 +28°C° 0.1 mm 0 mps 692 mmHg 69%
    10:00 +31°C° 0.2 mm 1 mps 692 mmHg 65%
    11:00 +32°C° 0.2 mm 1 mps 692 mmHg 60%
    12:00 +33°C° 0 mm 1 mps 692 mmHg 59%
    13:00 +32°C° 0.3 mm 1 mps 692 mmHg 60%
    14:00 +32°C° 0.3 mm 1 mps 691 mmHg 61%
    15:00 +32°C° 0.3 mm 1 mps 690 mmHg 62%
    16:00 +30°C° 0.2 mm 1 mps 690 mmHg 70%
    17:00 +26°C° 0.2 mm 0 mps 690 mmHg 78%
    18:00 +24°C° 0.2 mm 0 mps 689 mmHg 86%
    19:00 +23°C° 0 mm 0 mps 690 mmHg 88%
    20:00 +23°C° 0 mm 0 mps 690 mmHg 91%
    21:00 +22°C° 0 mm 0 mps 690 mmHg 93%
    22:00 +22°C° 0.1 mm 0 mps 690 mmHg 93%
    23:00 +22°C° 0.1 mm 0 mps 690 mmHg 94%

    Tomorrow, 24 September, Sunday

    Time Temperature Precipitation Wind Pressure Humidity
    00:00 +22°C° 0.1 mm 0 mps 690 mmHg 95%
    01:00 +21°C° 0.1 mm 0 mps 690 mmHg 95%
    02:00 +21°C° 0.1 mm 0 mps 690 mmHg 95%
    03:00 +21°C° 0.1 mm 0 mps 690 mmHg 96%
    04:00 +21°C° 0.1 mm 0 mps 690 mmHg 95%
    05:00 +21°C° 0.1 mm 0 mps 690 mmHg 95%
    06:00 +21°C° 0.1 mm 0 mps 690 mmHg 95%
    07:00 +23°C° 0.1 mm 0 mps 691 mmHg 85%
    08:00 +26°C° 0.1 mm 0 mps 691 mmHg 76%
    09:00 +28°C° 0.1 mm 0 mps 692 mmHg 66%
    10:00 +29°C° 0.1 mm 0 mps 692 mmHg 61%
    11:00 +32°C° 0.1 mm 1 mps 691 mmHg 57%
    12:00 +33°C° 0.1 mm 1 mps 691 mmHg 52%
    13:00 +33°C° 0.2 mm 1 mps 690 mmHg 53%
    14:00 +33°C° 0.2 mm 1 mps 689 mmHg 54%
    15:00 +33°C° 0.2 mm 1 mps 689 mmHg 55%
    16:00 +31°C° 0.2 mm 1 mps 688 mmHg 64%
    17:00 +27°C° 0.2 mm 0 mps 688 mmHg 73%
    18:00 +24°C° 0.2 mm 0 mps 688 mmHg 82%
    19:00 +24°C° 0.2 mm 0 mps 688 mmHg 85%
    20:00 +23°C° 0.2 mm 0 mps 689 mmHg 88%
    21:00 +23°C° 0.2 mm 0 mps 689 mmHg 91%
    22:00 +22°C° 0.1 mm 0 mps 689 mmHg 91%
    23:00 +22°C° 0.1 mm 0 mps 689 mmHg 92%

    Day after tomorrow, 25 September, Monday

    Time Temperature Precipitation Wind Pressure Humidity
    00:00 +22°C° 0.1 mm 0 mps 689 mmHg 93%
    01:00 +22°C° 0.2 mm 0 mps 689 mmHg 93%
    02:00 +21°C° 0.2 mm 0 mps 688 mmHg 93%
    03:00 +21°C° 0.2 mm 0 mps 688 mmHg 94%
    04:00 +21°C° 0.1 mm 0 mps 688 mmHg 93%
    05:00 +21°C° 0.1 mm 0 mps 689 mmHg 93%
    06:00 +21°C° 0.1 mm 0 mps 689 mmHg 93%
    07:00 +23°C° 0.2 mm 0 mps 690 mmHg 85%
    08:00 +26°C° 0.2 mm 0 mps 690 mmHg 77%
    09:00 +28°C° 0.2 mm 0 mps 691 mmHg 68%
    10:00 +29°C° 0.1 mm 0 mps 691 mmHg 63%
    11:00 +32°C° 0.1 mm 1 mps 690 mmHg 58%
    12:00 +33°C° 0.1 mm 1 mps 690 mmHg 53%
    13:00 +33°C° 0.1 mm 1 mps 689 mmHg 56%
    14:00 +33°C° 0.1 mm 1 mps 688 mmHg 58%
    15:00 +32°C° 0.1 mm 1 mps 687 mmHg 61%
    16:00 +30°C° 0.2 mm 1 mps 687 mmHg 70%
    17:00 +26°C° 0.2 mm 0 mps 687 mmHg 78%
    18:00 +24°C° 0.2 mm 0 mps 687 mmHg 87%
    19:00 +24°C° 0 mm 0 mps 688 mmHg 89%
    20:00 +23°C° 0 mm 0 mps 688 mmHg 90%
    21:00 +23°C° 0 mm 0 mps 689 mmHg 92%
    22:00 +23°C° 0 mm 0 mps 689 mmHg 93%
    23:00 +22°C° 0 mm 0 mps 689 mmHg 94%

    26 September, Tuesday

    Time Temperature Precipitation Wind Pressure Humidity
    00:00 +22°C° 0 mm 0 mps 688 mmHg 94%
    01:00 +22°C° 0.7 mm 0 mps 688 mmHg 95%
    02:00 +22°C° 0.7 mm 0 mps 688 mmHg 95%
    03:00 +22°C° 0.7 mm 0 mps 688 mmHg 96%
    04:00 +22°C° 0.6 mm 0 mps 688 mmHg 96%
    05:00 +22°C° 0.6 mm 0 mps 688 mmHg 96%
    06:00 +21°C° 0.6 mm 0 mps 689 mmHg 95%
    07:00 +24°C° 0.1 mm 0 mps 690 mmHg 87%
    08:00 +26°C° 0.1 mm 0 mps 691 mmHg 78%
    09:00 +29°C° 0.1 mm 0 mps 691 mmHg 70%
    10:00 +29°C° 0.2 mm 0 mps 691 mmHg 66%
    11:00 +32°C° 0.2 mm 1 mps 691 mmHg 63%
    12:00 +33°C° 0.2 mm 1 mps 690 mmHg 60%
    13:00 +32°C° 0.7 mm 1 mps 689 mmHg 64%
    14:00 +32°C° 0.7 mm 1 mps 689 mmHg 69%
    15:00 +31°C° 0.7 mm 1 mps 688 mmHg 73%
    16:00 +29°C° 0.4 mm 1 mps 688 mmHg 79%
    17:00 +26°C° 0.4 mm 0 mps 688 mmHg 85%
    18:00 +24°C° 0.4 mm 0 mps 688 mmHg 91%
    19:00 +24°C° 0.2 mm 0 mps 688 mmHg 91%
    20:00 +24°C° 0.2 mm 0 mps 689 mmHg 92%
    21:00 +23°C° 0.2 mm 0 mps 689 mmHg 93%
    22:00 +23°C° 0.5 mm 0 mps 689 mmHg 93%
    23:00 +23°C° 0.5 mm 0 mps 689 mmHg 94%

    27 September, Wednesday

    Time Temperature Precipitation Wind Pressure Humidity
    00:00 +22°C° 0.5 mm 0 mps 689 mmHg 95%
    01:00 +22°C° 1 mm 0 mps 689 mmHg 95%
    02:00 +22°C° 1 mm 0 mps 688 mmHg 95%
    03:00 +22°C° 1 mm 0 mps 688 mmHg 96%
    04:00 +22°C° 1.4 mm 0 mps 688 mmHg 95%
    05:00 +22°C° 1.4 mm 0 mps 689 mmHg 95%
    06:00 +22°C° 1.4 mm 0 mps 689 mmHg 95%
    07:00 +23°C° 0.6 mm 0 mps 690 mmHg 90%
    08:00 +25°C° 0.6 mm 0 mps 691 mmHg 85%
    09:00 +27°C° 0.6 mm 0 mps 692 mmHg 80%
    10:00 +30°C° 0.6 mm 1 mps 691 mmHg 76%
    11:00 +31°C° 0.6 mm 1 mps 691 mmHg 72%
    12:00 +31°C° 0.6 mm 1 mps 690 mmHg 68%
    13:00 +31°C° 0.5 mm 1 mps 690 mmHg 70%
    14:00 +29°C° 0.5 mm 0 mps 689 mmHg 72%
    15:00 +28°C° 0.5 mm 0 mps 688 mmHg 74%
    16:00 +27°C° 0.1 mm 0 mps 688 mmHg 79%
    17:00 +25°C° 0.1 mm 0 mps 688 mmHg 85%
    18:00 +24°C° 0.1 mm 0 mps 688 mmHg 90%
    19:00 +24°C° 0.3 mm 0 mps 689 mmHg 91%
    20:00 +23°C° 0.3 mm 0 mps 689 mmHg 92%
    21:00 +23°C° 0.3 mm 0 mps 690 mmHg 94%
    22:00 +22°C° 0.8 mm 0 mps 689 mmHg 94%
    23:00 +22°C° 0.8 mm 0 mps 689 mmHg 95%

    28 September, Thursday

    Time Temperature Precipitation Wind Pressure Humidity
    00:00 +22°C° 0.8 mm 0 mps 689 mmHg 95%
    01:00 +22°C° 0.7 mm 0 mps 689 mmHg 95%
    02:00 +22°C° 0.7 mm 0 mps 689 mmHg 95%
    03:00 +21°C° 0.7 mm 0 mps 688 mmHg 95%
    04:00 +21°C° 0.3 mm 0 mps 689 mmHg 94%
    05:00 +21°C° 0.3 mm 0 mps 689 mmHg 94%
    06:00 +21°C° 0.3 mm 0 mps 690 mmHg 93%
    07:00 +23°C° 0.1 mm 0 mps 690 mmHg 87%
    08:00 +26°C° 0.1 mm 1 mps 691 mmHg 82%
    09:00 +28°C° 0.1 mm 1 mps 692 mmHg 76%
    10:00 +29°C° 0.1 mm 1 mps 691 mmHg 70%
    11:00 +30°C° 0.1 mm 1 mps 691 mmHg 64%
    12:00 +32°C° 0.1 mm 1 mps 690 mmHg 58%
    13:00 +31°C° 0.5 mm 1 mps 690 mmHg 63%
    14:00 +30°C° 0.5 mm 1 mps 689 mmHg 68%
    15:00 +30°C° 0.5 mm 1 mps 688 mmHg 73%
    16:00 +28°C° 0.6 mm 1 mps 688 mmHg 79%
    17:00 +27°C° 0.6 mm 1 mps 688 mmHg 85%
    18:00 +23°C° 0.6 mm 0 mps 689 mmHg 92%
    19:00 +23°C° 0.2 mm 0 mps 689 mmHg 93%
    20:00 +22°C° 0.2 mm 0 mps 689 mmHg 94%
    21:00 +22°C° 0.2 mm 0 mps 690 mmHg 94%
    22:00 +22°C° 0.1 mm 0 mps 690 mmHg 95%
    23:00 +21°C° 0.1 mm 0 mps 689 mmHg 95%
    Show more